Regional Weather Roundup
Issued by NWS Midland/Odessa, TX

Skip options and go directly to product.
Home | Oldest Version | Previous Version | Current Version | All | Text Only | Save Text | Print | Product List | Glossary On

Skip product version selection by date and time.   
956
ASUS44 KMAF 241310
RWRMAF
MIDLAND AREA WEATHER ROUNDUP
NATIONAL WEATHER SERVICE MIDLAND TX
800 AM CDT WED AUG 24 2016

...IN SOUTHWEST TEXAS AND SOUTHEAST NEW MEXICO...

CITY           SKY/WX    TMP DP  RH WIND       PRES   REMARKS
ALPINE         CLOUDY    64  61  88 E10G16    30.30R
ANDREWS        NOT AVBL
ARTESIA        MOCLDY    63  63 100 SE10      30.15S
BIG SPRING     CLOUDY    73  67  83 SE8       30.17R
CARLSBAD       CLOUDY    63  61  93 SE6       30.12F
DRYDEN           N/A     71  67  87 NE6       30.10R
FORT STOCKTON  CLOUDY    67  61  81 N7        30.19R
GUAD PASS      NOT AVBL
HOBBS          LGT RAIN  63  63 100 SE3       30.16F
MARFA          CLOUDY   N/A N/A N/A N8        30.26R
MIDLAND AIRPK  RAIN      68  64  86 NW10      30.18S
MIDLAND INTL   LGT RAIN  67  63  87 NW12      30.16R
ODESSA         MOCLDY    67  61  81 N7        30.18R
PECOS          LGT RAIN  64  63  95 CALM      30.16S
PRESIDIO       NOT AVBL
SEMINOLE       LGT RAIN  65  62  89 E5        30.16F
SNYDER           N/A     71  66  85 S8        30.13R
WINK           CLOUDY    65  62  90 CALM      30.14F
$$
...OTHER STATIONS IN TEXAS...

CITY           SKY/WX    TMP DP  RH WIND       PRES   REMARKS
ABILENE        CLEAR     72  68  87 S7        30.12R
AMARILLO       CLOUDY    68  63  84 S9        30.13R
AUSTIN         MOSUNNY   77  75  93 S10       30.11R
BROWNSVILLE    SUNNY     77  77 100 SE6       30.09S
CORPUS CHRISTI MOSUNNY   79  77  94 SE6       30.08S
DALLAS FTW     MOSUNNY   77  71  82 S13       30.08R
DEL RIO        CLEAR     73  72  96 SE8       30.07R
EL PASO        MOCLDY    69  64  84 SE8       30.13R
HOUSTON INT    MOSUNNY   79  77  94 CALM      30.11R
LUBBOCK        LGT RAIN  66  62  87 SW15      30.13R
SAN ANGELO     PTCLDY    73  69  87 S6        30.11R
SAN ANTONIO    PTSUNNY   77  73  87 S9        30.13R
WACO           MOSUNNY   77  74  90 S10       30.11R
WICHITA FALLS  NOT AVBL
$$
...OTHER LOCATIONS IN NEW MEXICO...

CITY           SKY/WX    TMP DP  RH WIND       PRES   REMARKS
ALAMAGORDO     PTCLDY    66  57  72 S9        30.16R
ALBUQUERQUE    PTCLDY    59  50  72 CALM      30.23R
CANNON AFB     MOCLDY    65  57  73 SW15      30.16S
CLOVIS         CLOUDY    63  55  77 SW8       30.16S
HOLLOMAN AFB   CLOUDY    68  57  68 S9        30.14R
ROSWELL        CLOUDY    64  62  93 S13       30.15F
RUIDOSO          N/A     55  50  82 CALM      30.32R
SANTA FE       CLEAR     50  47  89 N6        30.26R
TRUTH OR CONSE CLEAR     60  48  64 NW5       30.19R
TUCUMCARI      PTCLDY    66  57  72 W8        30.13R
$$

USA.gov is the U.S. government's official web portal to all federal, state and local government web resources and services.